VY1XY Weather Reports


time (UTC)temp
F
wind
direction
speed
knots
gust
knots
rain 1hr
in
rain 24hr
in
rain mn
in
humidity
%
barometer
mb
20260506050507 40 155 1.7 11.3 0.00 0.00 0.00 64 1008.9
20260506044707 41 199 1.7 9.6 0.00 0.00 0.00 63 1008.8
20260506043807 42 147 1.7 6.1 0.00 0.00 0.00 62 1008.6
20260506042908 42 149 1.7 5.2 0.00 0.00 0.00 61 1008.8
20260506042007 43 144 1.7 6.1 0.00 0.00 0.00 60 1008.8
20260506041107 44 133 1.7 7.0 0.00 0.00 0.00 58 1008.7
20260506040207 45 152 1.7 7.0 0.00 0.00 0.00 57 1008.4
20260506035308 45 157 1.7 10.4 0.00 0.00 0.00 55 1008.2
20260506034407 46 151 1.7 9.6 0.00 0.00 0.00 55 1007.9
20260506032607 46 146 1.7 9.6 0.00 0.00 0.00 53 1008.1
20260506031707 47 144 3.5 8.7 0.00 0.00 0.00 52 1008.0
20260506030807 48 147 2.6 8.7 0.00 0.00 0.00 50 1007.9
20260506025907 49 160 2.6 10.4 0.00 0.00 0.00 49 1007.8
20260506024108 51 142 1.7 6.1 0.00 0.00 0.00 47 1007.9
20260506023207 51 139 1.7 8.7 0.00 0.00 0.00 46 1007.8
20260506022307 51 171 1.7 10.4 0.00 0.00 0.00 45 1007.6
20260506020507 53 148 0.9 5.2 0.00 0.00 0.00 43 1007.7
20260506015607 52 146 1.7 7.8 0.00 0.00 0.00 44 1007.4
20260506014707 51 137 2.6 9.6 0.00 0.00 0.00 44 1007.2
20260506012907 52 150 2.6 11.3 0.00 0.00 0.00 43 1007.2
20260506012007 52 171 2.6 11.3 0.00 0.00 0.00 44 1006.9
20260506011107 52 155 2.6 9.6 0.00 0.00 0.00 42 1007.2
20260506010208 53 174 2.6 10.4 0.00 0.00 0.00 42 1007.2
20260506005307 54 164 2.6 10.4 0.00 0.00 0.00 40 1007.2
20260506004407 54 154 3.5 11.3 0.00 0.00 0.00 40 1007.2
20260506003507 55 156 2.6 9.6 0.00 0.00 0.00 38 1006.9
20260506002608 55 154 2.6 11.3 0.00 0.00 0.00 39 1007.0
20260506000806 54 138 2.6 8.7 0.00 0.00 0.00 39 1006.9
20260505235007 53 152 3.5 7.8 0.00 0.00 0.00 41 1006.9
20260505234107 53 151 2.6 11.3 0.00 0.00 0.00 40 1007.0
20260505233207 54 165 2.6 7.8 0.00 0.00 0.00 40 1006.8
20260505232307 53 153 2.6 7.8 0.00 0.00 0.00 41 1007.0
20260505231406 54 154 2.6 14.8 0.00 0.00 0.00 40 1007.0
20260505230506 55 167 2.6 14.8 0.00 0.00 0.00 41 1007.1
20260505225606 56 154 3.5 10.4 0.00 0.00 0.00 39 1007.0
20260505223807 56 146 2.6 9.6 0.00 0.00 0.00 39 1007.0
20260505222906 57 149 2.6 8.7 0.00 0.00 0.00 38 1006.9
20260505222007 57 149 3.5 9.6 0.00 0.00 0.00 39 1006.9
20260505221106 56 155 3.5 13.0 0.00 0.00 0.00 38 1006.8
20260505220207 57 164 3.5 10.4 0.00 0.00 0.00 37 1006.9
20260505215306 57 179 2.6 8.7 0.00 0.00 0.00 37 1006.8
20260505214407 57 133 4.3 13.0 0.00 0.00 0.00 38 1006.6
20260505213506 57 163 4.3 12.2 0.00 0.00 0.00 37 1006.5
20260505212606 57 159 3.5 11.3 0.00 0.00 0.00 36 1006.4
20260505211707 57 164 3.5 10.4 0.00 0.00 0.00 38 1006.4
20260505210806 57 150 4.3 13.0 0.00 0.00 0.00 40 1006.5
20260505205906 57 140 4.3 13.0 0.00 0.00 0.00 39 1006.6
20260505205007 57 172 3.5 14.8 0.00 0.00 0.00 41 1006.6
20260505204106 57 156 3.5 12.2 0.00 0.00 0.00 42 1006.4
20260505203207 56 159 3.5 13.9 0.00 0.00 0.00 43 1006.5
20260505202307 56 141 4.3 11.3 0.00 0.00 0.00 46 1006.3
20260505201406 55 150 4.3 14.8 0.00 0.00 0.00 48 1006.5
20260505200507 55 148 3.5 10.4 0.00 0.00 0.00 50 1006.3
20260505195607 55 144 3.5 12.2 0.00 0.00 0.00 52 1006.4
20260505194707 55 160 4.3 13.0 0.00 0.00 0.00 53 1006.2
20260505193806 55 152 4.3 16.5 0.00 0.00 0.00 51 1006.2
20260505192907 56 162 4.3 14.8 0.00 0.00 0.00 51 1006.2
20260505192006 55 164 5.2 13.0 0.00 0.00 0.00 53 1006.3
20260505191108 56 166 3.5 13.0 0.00 0.00 0.00 52 1006.5
20260505185306 55 148 4.3 13.9 0.00 0.00 0.00 53 1006.6
20260505184408 55 163 4.3 14.8 0.00 0.00 0.00 53 1006.6
20260505183506 56 153 3.5 9.6 0.00 0.00 0.00 52 1006.7
20260505182606 56 178 2.6 10.4 0.00 0.00 0.00 53 1006.6
20260505181706 56 184 1.7 5.2 0.00 0.00 0.00 54 1006.4
20260505180806 56 200 2.6 12.2 0.00 0.00 0.00 53 1006.5
20260505175906 56 169 2.6 8.7 0.00 0.00 0.00 52 1006.3
20260505175006 55 155 3.5 13.9 0.00 0.00 0.00 53 1006.4
20260505174106 55 146 2.6 10.4 0.00 0.00 0.00 53 1006.4
20260505172307 56 154 2.6 9.6 0.00 0.00 0.00 50 1006.5
20260505171406 56 141 2.6 8.7 0.00 0.00 0.00 49 1006.3
20260505170506 55 158 2.6 11.3 0.00 0.00 0.00 49 1006.2
20260505165607 55 155 1.7 7.8 0.00 0.00 0.00 49 1006.3
20260505163806 54 147 1.7 6.1 0.00 0.00 0.00 49 1006.2
20260505162906 53 147 0.9 6.1 0.00 0.00 0.00 49 1006.1
20260505162011 53 162 0.9 5.2 0.00 0.00 0.00 48 1006.0
20260505161106 54 154 0.9 3.5 0.00 0.00 0.00 47 1006.1
20260505160206 53 176 0.9 5.2 0.00 0.00 0.00 49 1006.1
20260505152606 45 104 0.0 0.9 0.00 0.00 0.00 66 1006.5
20260505150806 40 104 0.0 0.9 0.00 0.00 0.00 74 1006.7
20260505140506 39 95 0.0 1.7 0.00 0.00 0.00 75 1006.8
20260505130206 36 123 0.0 0.9 0.00 0.00 0.00 80 1006.9
20260505124406 37 78 0.0 1.7 0.00 0.00 0.00 79 1007.4
20260505123507 36 92 0.0 0.9 0.00 0.00 0.00 80 1007.3
20260505122606 36 83 0.0 1.7 0.00 0.00 0.00 80 1007.4
20260505121706 36 102 0.0 1.7 0.00 0.00 0.00 79 1007.5
20260505120806 36 0 0.0 0.0 0.00 0.00 0.00 79 1007.4
20260505115906 36 0 0.0 0.0 0.00 0.00 0.00 80 1007.5
20260505115006 36 108 0.0 0.9 0.00 0.00 0.00 79 1007.5
20260505114106 37 0 0.0 0.0 0.00 0.00 0.00 78 1007.9
20260505113206 37 0 0.0 0.0 0.00 0.00 0.00 78 1008.1
20260505112307 37 0 0.0 0.0 0.00 0.00 0.00 78 1008.3
20260505111406 37 0 0.0 0.0 0.00 0.00 0.00 76 1008.4
20260505102006 40 0 0.0 0.0 0.00 0.00 0.00 71 1009.0
20260505101106 41 0 0.0 0.0 0.00 0.00 0.00 72 1009.0
20260505100205 39 0 0.0 0.0 0.00 0.00 0.00 74 1009.1
20260505095306 39 0 0.0 0.0 0.00 0.00 0.00 74 1009.3
20260505094406 39 0 0.0 0.0 0.00 0.00 0.00 74 1009.3
20260505092606 38 86 0.0 0.9 0.00 0.00 0.00 75 1009.5
20260505091706 38 0 0.0 0.0 0.00 0.00 0.00 75 1009.5
20260505090805 38 0 0.0 0.0 0.00 0.00 0.00 75 1009.6
20260505085907 38 0 0.0 0.0 0.00 0.00 0.00 74 1009.8
20260505085006 38 0 0.0 0.0 0.00 0.00 0.00 73 1010.0
20260505084105 39 0 0.0 0.0 0.00 0.00 0.00 72 1010.2
20260505083206 39 0 0.0 0.0 0.00 0.00 0.00 72 1010.2
20260505082306 38 0 0.0 0.0 0.00 0.00 0.00 73 1010.3
20260505080505 39 109 0.0 0.9 0.00 0.00 0.00 72 1010.5
20260505075605 38 90 0.0 0.9 0.00 0.00 0.00 73 1010.7
20260505074706 38 88 0.0 1.7 0.00 0.00 0.00 73 1010.8
20260505073805 38 0 0.0 0.0 0.00 0.00 0.00 72 1010.9
20260505072006 38 96 0.0 0.9 0.00 0.00 0.00 72 1011.1
20260505071106 38 108 0.0 0.9 0.00 0.00 0.00 71 1011.2
20260505070205 38 109 0.0 0.9 0.00 0.00 0.00 71 1011.4
20260505065306 38 97 0.0 1.7 0.00 0.00 0.00 70 1011.5
20260505064405 38 109 0.0 0.9 0.00 0.00 0.00 70 1011.6
20260505063506 39 109 0.0 0.9 0.00 0.00 0.00 68 1011.6
20260505062605 40 92 0.0 0.9 0.00 0.00 0.00 67 1011.7
20260505061705 40 92 0.0 0.9 0.00 0.00 0.00 66 1011.7
20260505060805 41 108 0.0 0.9 0.00 0.00 0.00 68 1011.8
20260505055906 41 111 0.0 0.9 0.00 0.00 0.00 65 1011.8
20260505055005 42 107 0.0 0.9 0.00 0.00 0.00 64 1012.0